Retour au catalogue

FENGYUN 1C DEB

ActifPO
NORAD 30868·DEBRIS·🇨🇳 China

Lancé May 10, 1999 depuis Taiyuan Satellite Launch Center

Loading…

Prochains Passages (prochaines 24 heures)

TLE

FraisSource: Space-Track

Époque: Sep 14, 2026, 10:44 UTC

1 30868U 99025AXE 26257.44768669  .00000087  00000-0  63091-4 0  9990
2 30868  98.2251 118.1827 0136377 139.4242 342.2793 14.11242932  5985

Suivez FENGYUN 1C DEB en temps réel avec AllMySat

Download on the App Store